Hourly Data Report for October 30, 2013

All times are specified in Local Standard Time (LST). Add 1 hour to adjust for Daylight Saving Time where and when it is observed.

RANKIN INLET A
NUNAVUT

62°48'38.000" N
92°06'53.000" W
32.30 m
2303405
71083
YRT

Download Data

Hourly Data (October 2013)
Hourly Data Report for October 30, 2013
Temp Definition
°C
Dew Point Temp Definition
°C
Rel Hum Definition
%
Wind Dir Definition
10's deg

Wind Spd Definition
km/h
Visibility Definition
km
Stn Press Definition
kPa
Hmdx Definition


Wind Chill Definition


Weather Definition


TIME
00:00 Legend Double Dagger -19.8 -22.1 82 1 9 24.1 100.67   -27 Mostly Cloudy
01:00 Legend Double Dagger -19.6 -21.9 82 1 8 24.1 100.58   -26 LegendNANA
02:00 Legend Double Dagger -19.4 -21.9 81 35 8 24.1 100.54   -26 LegendNANA
03:00 Legend Double Dagger -18.9 -21.3 82 2 6 16.1 100.49   -24 Snow
04:00 Legend Double Dagger -16.5 -18.8 83 2 8 16.1 100.36   -22 Snow
05:00 Legend Double Dagger -12.1 -13.8 87 4 7 16.1 100.28   -16 LegendNANA
06:00 Legend Double Dagger -9.7 -12.1 83 13 23 16.1 100.22   -18 Snow
07:00 Legend Double Dagger -8.4 -12.2 74 13 20 16.1 100.15   -16 Snow
08:00 Legend Double Dagger -7.7 -11.7 73 16 31 19.3 100.05   -17 Snow,Blowing Snow
09:00 Legend Double Dagger -7.0 -10.9 74 14 34 24.1 99.95   -16 Snow,Blowing Snow
10:00 Legend Double Dagger -6.5 -10.6 73 14 34 24.1 99.89   -15 Snow,Blowing Snow
11:00 Legend Double Dagger -6.2 -10.1 74 14 38 19.3 99.82   -15 Snow,Blowing Snow
12:00 Legend Double Dagger -5.9 -10.0 73 14 43 19.3 99.72   -16 Snow,Blowing Snow
13:00 Legend Double Dagger -5.3 -8.6 78 14 38 16.1 99.63   -14 Snow,Blowing Snow
14:00 Legend Double Dagger -4.9 -9.0 73 13 40 24.1 99.55   -14 Snow,Blowing Snow
15:00 Legend Double Dagger -4.7 -9.0 72 12 41 24.1 99.49   -14 Snow,Blowing Snow
16:00 Legend Double Dagger -4.3 -8.3 74 12 46 19.3 99.45   -14 Snow,Blowing Snow
17:00 Legend Double Dagger -4.0 -7.1 79 13 45 12.9 99.44   -13 Snow,Blowing Snow
18:00 Legend Double Dagger -3.9 -6.7 81 14 42 6.4 99.43   -13 Snow,Blowing Snow
19:00 Legend Double Dagger -3.6 -5.9 84 13 42 6.4 99.40   -12 Snow,Blowing Snow
20:00 Legend Double Dagger -3.7 -5.4 88 12 50 1.6 99.37   -13 Snow,Blowing Snow
21:00 Legend Double Dagger -3.4 -5.7 84 12 44 3.2 99.35   -12 Snow,Blowing Snow
22:00 Legend Double Dagger -3.4 -5.7 84 12 41 3.2 99.34   -12 Snow,Blowing Snow
23:00 Legend Double Dagger -3.4 -5.6 85 11 44 3.2 99.31   -12 Snow,Blowing Snow

Notes on Data Quality.

Legend

  • E = Estimated
  • M = Missing
  • NA = Not Available
  • ‡ = Partner data that is not subject to review by the National Climate Archives
Date modified: